Find Kosmos-565

NORAD ID: 6676 Int'l Des: 1973-037 Owner: GUKOSR Country: SU operational
LEOCIRCULAR

Live Position

Loading 3D Globe...

About Kosmos-565

Description loading...

Upcoming Passes

Passes for default location (London). Set your location on the main map for personalized predictions.

Altitude History

Loading altitude history...

Two-Line Element Set

1 6676U 73037B 26110.38170294 -.00000024 00000-0 -54547-4 0 9996
2 6676 74.0167 82.4984 0025535 16.5731 56.2922 12.48970080410291
Epoch: Apr 20, 2026 • Age: 16 hours

Current Status

Altitude 1504.8 km
Velocity 7.11 km/s
Sub-Earth Point -62.53°S, 63.65°E
Type other

Most Searched